SVA5701 OEMA-OEJN

Flight info

Callsign SVA5701
Flight time 0h 55m
Altitude 26000
Route SISUD B544 NOMDA
Aircraft B77W/H-SDE1E2E3FGHIJ2J3J4J5M1RWXY/LB1D1

Departure

Time 2026-05-08 21:14
Airport Prince Mohammad Bin Abdulaziz Airport (OEMA)

Arrival

Time 2026-05-08 22:10
Airport King Abdulaziz International Airport (OEJN)
Time Latitude Longitude Altitude Speed Heading
2026-05-08 20:40 24.55674 39.71225 2158 ft 0 kts 79°
2026-05-08 21:01 24.55672 39.71211 2159 ft 2 kts 79°
2026-05-08 21:01 24.55669 39.71194 2159 ft 2 kts 79°
2026-05-08 21:01 24.55666 39.71178 2159 ft 1 kts 79°
2026-05-08 21:01 24.55664 39.71168 2159 ft 2 kts 73°
2026-05-08 21:02 24.55657 39.71154 2159 ft 2 kts 39°
2026-05-08 21:02 24.55644 39.71146 2158 ft 2 kts 11°
2026-05-08 21:02 24.55632 39.71146 2158 ft 0 kts 349°
2026-05-08 21:02 24.55628 39.71146 2158 ft 0 kts 348°
2026-05-08 21:06 24.55633 39.71145 2158 ft 1 kts 349°
2026-05-08 21:06 24.55669 39.71137 2159 ft 9 kts 346°
2026-05-08 21:06 24.55758 39.71126 2161 ft 13 kts 351°
2026-05-08 21:07 24.55848 39.71102 2161 ft 14 kts 346°
2026-05-08 21:07 24.55954 39.71079 2157 ft 17 kts 350°
2026-05-08 21:07 24.56083 39.71051 2154 ft 20 kts 349°
2026-05-08 21:07 24.56234 39.71022 2149 ft 23 kts 348°
2026-05-08 21:08 24.56371 39.70991 2152 ft 12 kts 349°
2026-05-08 21:08 24.56375 39.70990 2152 ft 12 kts 349°
2026-05-08 21:08 24.56388 39.70988 2152 ft 6 kts 349°
2026-05-08 21:08 24.56417 39.70978 2153 ft 4 kts 338°
2026-05-08 21:09 24.56442 39.70946 2153 ft 7 kts 287°
2026-05-08 21:09 24.56440 39.70880 2152 ft 9 kts 258°
2026-05-08 21:09 24.56433 39.70807 2150 ft 9 kts 286°
2026-05-08 21:09 24.56491 39.70767 2150 ft 10 kts 345°
2026-05-08 21:10 24.56572 39.70748 2150 ft 15 kts 350°
2026-05-08 21:10 24.56713 39.70719 2149 ft 22 kts 349°
2026-05-08 21:10 24.56859 39.70689 2151 ft 20 kts 350°
2026-05-08 21:10 24.56991 39.70662 2151 ft 18 kts 348°
2026-05-08 21:11 24.57112 39.70635 2151 ft 17 kts 349°
2026-05-08 21:11 24.57226 39.70611 2151 ft 16 kts 349°
2026-05-08 21:11 24.57336 39.70588 2151 ft 17 kts 350°
2026-05-08 21:11 24.57470 39.70559 2150 ft 19 kts 349°
2026-05-08 21:12 24.57565 39.70539 2151 ft 12 kts 347°
2026-05-08 21:12 24.57644 39.70508 2150 ft 11 kts 314°
2026-05-08 21:12 24.57646 39.70423 2150 ft 11 kts 260°
2026-05-08 21:12 24.57630 39.70345 2150 ft 10 kts 244°
2026-05-08 21:13 24.57614 39.70335 2150 ft 1 kts 167°
2026-05-08 21:13 24.57610 39.70336 2150 ft 0 kts 167°
2026-05-08 21:13 24.57530 39.70354 2151 ft 29 kts 169°
2026-05-08 21:13 24.57067 39.70454 2145 ft 109 kts 169°
2026-05-08 21:14 24.56071 39.70663 2178 ft 175 kts 168°
2026-05-08 21:14 24.54807 39.70884 2825 ft 188 kts 169°
2026-05-08 21:14 24.53557 39.71153 3876 ft 184 kts 166°
2026-05-08 21:14 24.52301 39.71445 4582 ft 194 kts 167°
2026-05-08 21:15 24.50908 39.71753 5197 ft 210 kts 168°
2026-05-08 21:15 24.49449 39.72066 5882 ft 225 kts 168°
2026-05-08 21:15 24.47867 39.72413 6616 ft 237 kts 167°
2026-05-08 21:15 24.46258 39.72771 7522 ft 242 kts 170°
2026-05-08 21:16 24.44546 39.73130 8121 ft 263 kts 170°
2026-05-08 21:16 24.42643 39.73532 8140 ft 283 kts 169°
2026-05-08 21:16 24.40649 39.73941 8535 ft 302 kts 170°
2026-05-08 21:16 24.38644 39.74360 9905 ft 291 kts 171°
2026-05-08 21:17 24.36693 39.74769 10968 ft 293 kts 172°
2026-05-08 21:17 24.34606 39.74939 11622 ft 308 kts 184°
2026-05-08 21:17 24.32427 39.74559 12218 ft 325 kts 197°
2026-05-08 21:17 24.30312 39.73585 12910 ft 339 kts 207°
2026-05-08 21:18 24.28235 39.72353 13952 ft 342 kts 208°
2026-05-08 21:18 24.26109 39.71109 14913 ft 348 kts 208°
2026-05-08 21:18 24.23945 39.69876 15601 ft 361 kts 208°
2026-05-08 21:18 24.21672 39.68601 16463 ft 369 kts 208°
2026-05-08 21:19 24.19395 39.67329 17300 ft 376 kts 209°
2026-05-08 21:19 24.17016 39.66003 18050 ft 386 kts 210°
2026-05-08 21:19 24.14614 39.64664 18870 ft 393 kts 210°
2026-05-08 21:19 24.12166 39.63302 19694 ft 399 kts 210°
2026-05-08 21:20 24.09679 39.61918 20510 ft 405 kts 211°
2026-05-08 21:20 24.07151 39.60511 21296 ft 411 kts 211°
2026-05-08 21:20 24.04571 39.59076 21996 ft 419 kts 211°
2026-05-08 21:20 24.01941 39.57615 22742 ft 425 kts 211°
2026-05-08 21:21 23.99288 39.56141 23586 ft 429 kts 211°
2026-05-08 21:21 23.96629 39.54666 24367 ft 434 kts 211°
2026-05-08 21:21 23.93913 39.53158 24961 ft 440 kts 211°
2026-05-08 21:21 23.91136 39.51617 25077 ft 443 kts 211°
2026-05-08 21:22 23.88440 39.50124 25079 ft 443 kts 211°
2026-05-08 21:22 23.85631 39.48566 25160 ft 453 kts 211°
2026-05-08 21:22 23.82796 39.46995 25815 ft 457 kts 211°
2026-05-08 21:22 23.79965 39.45431 26054 ft 451 kts 211°
2026-05-08 21:23 23.77166 39.43884 26065 ft 445 kts 211°
2026-05-08 21:23 23.74341 39.42531 26072 ft 444 kts 203°
2026-05-08 21:23 23.71408 39.41475 26065 ft 444 kts 201°
2026-05-08 21:23 23.68436 39.40444 26047 ft 447 kts 201°
2026-05-08 21:24 23.65487 39.39424 26043 ft 446 kts 201°
2026-05-08 21:24 23.62492 39.38390 26024 ft 448 kts 201°
2026-05-08 21:24 23.59500 39.37355 26004 ft 446 kts 201°
2026-05-08 21:24 23.56536 39.36330 26013 ft 446 kts 201°
2026-05-08 21:25 23.53578 39.35307 25996 ft 446 kts 201°
2026-05-08 21:25 23.50589 39.34274 25997 ft 448 kts 201°
2026-05-08 21:25 23.47622 39.33249 25978 ft 447 kts 201°
2026-05-08 21:25 23.44630 39.32216 25965 ft 449 kts 201°
2026-05-08 21:26 23.41668 39.31195 25953 ft 447 kts 200°
2026-05-08 21:26 23.38707 39.30174 25956 ft 446 kts 201°
2026-05-08 21:26 23.35739 39.29151 25947 ft 447 kts 200°
2026-05-08 21:26 23.32767 39.28127 25928 ft 447 kts 201°
2026-05-08 21:27 23.29803 39.27107 25918 ft 445 kts 200°
2026-05-08 21:27 23.26847 39.26089 25908 ft 447 kts 201°
2026-05-08 21:27 23.23866 39.25063 25906 ft 446 kts 200°
2026-05-08 21:27 23.20911 39.24047 25900 ft 446 kts 201°
2026-05-08 21:28 23.17898 39.23011 25892 ft 446 kts 201°
2026-05-08 21:28 23.14940 39.21995 25899 ft 446 kts 201°
2026-05-08 21:28 23.11967 39.20974 25907 ft 445 kts 200°
2026-05-08 21:28 23.09002 39.19957 25906 ft 446 kts 201°
2026-05-08 21:29 23.06028 39.18937 25898 ft 446 kts 200°
2026-05-08 21:29 23.03056 39.17917 25899 ft 446 kts 201°
2026-05-08 21:29 23.00124 39.16914 25666 ft 436 kts 201°
2026-05-08 21:29 22.97238 39.15926 24966 ft 437 kts 200°
2026-05-08 21:30 22.94340 39.14932 24255 ft 437 kts 200°
2026-05-08 21:30 22.91445 39.13941 23700 ft 434 kts 200°
2026-05-08 21:30 22.88561 39.12955 23212 ft 428 kts 200°
2026-05-08 21:30 22.85741 39.11991 22647 ft 425 kts 201°
2026-05-08 21:31 22.82895 39.11018 22055 ft 423 kts 200°
2026-05-08 21:31 22.80068 39.10181 21570 ft 421 kts 192°
2026-05-08 21:31 22.77157 39.09895 21176 ft 417 kts 182°
2026-05-08 21:31 22.74268 39.09916 20711 ft 413 kts 180°
2026-05-08 21:32 22.71394 39.09969 20118 ft 413 kts 180°
2026-05-08 21:32 22.68519 39.10046 19617 ft 409 kts 179°
2026-05-08 21:32 22.65694 39.10134 19200 ft 403 kts 179°
2026-05-08 21:32 22.62906 39.10223 18790 ft 397 kts 179°
2026-05-08 21:33 22.60145 39.10312 18255 ft 394 kts 179°
2026-05-08 21:33 22.57436 39.10399 17725 ft 391 kts 179°
2026-05-08 21:33 22.54725 39.10487 17284 ft 386 kts 179°
2026-05-08 21:33 22.52064 39.10573 16849 ft 381 kts 179°
2026-05-08 21:34 22.49398 39.10631 16442 ft 375 kts 180°
2026-05-08 21:34 22.46804 39.10637 16029 ft 370 kts 180°
2026-05-08 21:34 22.44233 39.10641 15633 ft 365 kts 180°
2026-05-08 21:34 22.41733 39.10648 15211 ft 360 kts 180°
2026-05-08 21:35 22.39230 39.10656 14756 ft 356 kts 180°
2026-05-08 21:35 22.36770 39.10665 14329 ft 352 kts 180°
2026-05-08 21:35 22.34315 39.10675 13884 ft 347 kts 180°
2026-05-08 21:35 22.31931 39.10686 13468 ft 343 kts 180°
2026-05-08 21:36 22.29531 39.10696 13139 ft 335 kts 180°
2026-05-08 21:36 22.27245 39.10706 13028 ft 320 kts 180°
2026-05-08 21:36 22.25058 39.10715 12958 ft 305 kts 180°
2026-05-08 21:36 22.22954 39.10725 12663 ft 300 kts 180°
2026-05-08 21:37 22.20883 39.10734 12221 ft 300 kts 179°
2026-05-08 21:37 22.18781 39.10744 11765 ft 301 kts 179°
2026-05-08 21:37 22.16678 39.10754 11313 ft 301 kts 179°
2026-05-08 21:37 22.14570 39.10765 10851 ft 301 kts 179°
2026-05-08 21:38 22.12486 39.10776 10334 ft 296 kts 179°
2026-05-08 21:38 22.10450 39.10775 9892 ft 289 kts 182°
2026-05-08 21:38 22.08502 39.10348 9447 ft 284 kts 196°
2026-05-08 21:38 22.06619 39.09642 8995 ft 287 kts 199°
2026-05-08 21:39 22.04759 39.08907 8559 ft 289 kts 199°
2026-05-08 21:39 22.02863 39.08158 8331 ft 282 kts 199°
2026-05-08 21:39 22.01055 39.07446 8146 ft 275 kts 199°
2026-05-08 21:39 21.99251 39.06737 8009 ft 276 kts 199°
2026-05-08 21:40 21.97446 39.06030 7959 ft 275 kts 199°
2026-05-08 21:40 21.95619 39.05314 7968 ft 277 kts 199°
2026-05-08 21:40 21.93822 39.04610 7971 ft 275 kts 199°
2026-05-08 21:41 21.90220 39.03200 7954 ft 275 kts 199°
2026-05-08 21:41 21.88440 39.02504 7952 ft 275 kts 199°
2026-05-08 21:41 21.86645 39.01801 7975 ft 275 kts 199°
2026-05-08 21:41 21.84835 39.01093 7956 ft 275 kts 199°
2026-05-08 21:42 21.83038 39.00390 7957 ft 276 kts 199°
2026-05-08 21:42 21.81229 38.99683 7967 ft 276 kts 199°
2026-05-08 21:42 21.79429 38.98979 7962 ft 264 kts 198°
2026-05-08 21:42 21.77651 38.98663 7896 ft 262 kts 174°
2026-05-08 21:43 21.75851 38.99058 7778 ft 263 kts 161°
2026-05-08 21:43 21.74126 38.99695 7634 ft 263 kts 159°
2026-05-08 21:43 21.72406 39.00385 7485 ft 262 kts 158°
2026-05-08 21:43 21.70667 39.01086 7266 ft 263 kts 158°
2026-05-08 21:44 21.68966 39.01770 6972 ft 264 kts 158°
2026-05-08 21:44 21.67244 39.02460 6664 ft 263 kts 159°
2026-05-08 21:44 21.65518 39.03149 6352 ft 262 kts 159°
2026-05-08 21:44 21.63793 39.03825 6042 ft 262 kts 159°
2026-05-08 21:45 21.62096 39.04489 5739 ft 261 kts 159°
2026-05-08 21:45 21.60386 39.05160 5429 ft 261 kts 159°
2026-05-08 21:45 21.58666 39.05835 5117 ft 262 kts 159°
2026-05-08 21:45 21.56948 39.06510 4809 ft 262 kts 158°
2026-05-08 21:46 21.55223 39.07187 4496 ft 262 kts 158°
2026-05-08 21:46 21.53519 39.07856 4186 ft 262 kts 158°
2026-05-08 21:46 21.51795 39.08532 3877 ft 262 kts 157°
2026-05-08 21:46 21.50094 39.09204 3572 ft 262 kts 157°
2026-05-08 21:47 21.48372 39.09887 3262 ft 263 kts 157°
2026-05-08 21:47 21.46660 39.10573 3088 ft 258 kts 153°
2026-05-08 21:47 21.45250 39.11714 3010 ft 259 kts 123°
2026-05-08 21:47 21.44538 39.13411 2835 ft 244 kts 93°
2026-05-08 21:48 21.44659 39.15171 2697 ft 230 kts 74°
2026-05-08 21:48 21.45017 39.16822 2677 ft 229 kts 72°
2026-05-08 21:48 21.45390 39.18477 2662 ft 222 kts 72°
2026-05-08 21:48 21.45750 39.20050 2667 ft 210 kts 70°
2026-05-08 21:49 21.46441 39.21379 2666 ft 202 kts 42°
2026-05-08 21:49 21.47632 39.22070 2643 ft 192 kts
2026-05-08 21:49 21.48893 39.21828 2635 ft 183 kts 331°
2026-05-08 21:49 21.49789 39.20874 2663 ft 184 kts 320°
2026-05-08 21:50 21.50903 39.20198 2678 ft 184 kts 344°
2026-05-08 21:50 21.52106 39.19785 2665 ft 180 kts 345°
2026-05-08 21:50 21.53295 39.19345 2663 ft 179 kts 343°
2026-05-08 21:50 21.54489 39.18877 2545 ft 184 kts 342°
2026-05-08 21:51 21.55700 39.18399 2317 ft 182 kts 343°
2026-05-08 21:51 21.56876 39.17937 2079 ft 176 kts 343°
2026-05-08 21:51 21.57993 39.17501 1864 ft 166 kts 343°
2026-05-08 21:51 21.59053 39.17086 1692 ft 156 kts 343°
2026-05-08 21:52 21.60017 39.16708 1488 ft 139 kts 343°
2026-05-08 21:52 21.60925 39.16355 1320 ft 135 kts 343°
2026-05-08 21:52 21.61810 39.16019 1125 ft 134 kts 342°
2026-05-08 21:52 21.62681 39.15653 934 ft 132 kts 340°
2026-05-08 21:53 21.63548 39.15295 825 ft 131 kts 344°
2026-05-08 21:53 21.64411 39.14994 596 ft 135 kts 342°
2026-05-08 21:53 21.65274 39.14655 430 ft 138 kts 341°
2026-05-08 21:53 21.66165 39.14304 257 ft 136 kts 341°
2026-05-08 21:54 21.67054 39.13957 96 ft 134 kts 340°
2026-05-08 21:54 21.67929 39.13615 97 ft 148 kts 340°
2026-05-08 21:54 21.68970 39.13182 833 ft 171 kts 340°
2026-05-08 21:54 21.70068 39.12690 2173 ft 181 kts 338°
2026-05-08 21:55 21.71196 39.12140 3373 ft 194 kts 339°
2026-05-08 21:55 21.72497 39.11551 4142 ft 214 kts 339°
2026-05-08 21:55 21.73931 39.10930 4123 ft 223 kts 339°
2026-05-08 21:56 21.76773 39.09698 3975 ft 219 kts 336°
2026-05-08 21:56 21.77953 39.08633 3965 ft 235 kts 304°
2026-05-08 21:56 21.78472 39.06935 3965 ft 246 kts 273°
2026-05-08 21:56 21.78240 39.05087 3979 ft 252 kts 259°
2026-05-08 21:57 21.77846 39.03258 3983 ft 251 kts 258°
2026-05-08 21:57 21.77336 39.01463 3972 ft 253 kts 242°
2026-05-08 21:57 21.76148 39.00082 3944 ft 257 kts 211°
2026-05-08 21:57 21.74424 38.99543 3956 ft 257 kts 178°
2026-05-08 21:58 21.72697 38.99956 3977 ft 256 kts 158°
2026-05-08 21:58 21.71024 39.00633 3975 ft 255 kts 157°
2026-05-08 21:58 21.69365 39.01318 3977 ft 255 kts 157°
2026-05-08 21:58 21.67695 39.02008 3979 ft 255 kts 157°
2026-05-08 21:59 21.66028 39.02696 3977 ft 254 kts 157°
2026-05-08 21:59 21.64393 39.03371 3979 ft 254 kts 157°
2026-05-08 21:59 21.62729 39.04057 3977 ft 254 kts 157°
2026-05-08 21:59 21.61076 39.04737 3975 ft 255 kts 156°
2026-05-08 22:00 21.59413 39.05420 3974 ft 255 kts 156°
2026-05-08 22:00 21.57743 39.06106 3877 ft 257 kts 156°
2026-05-08 22:00 21.56062 39.06796 3599 ft 257 kts 156°
2026-05-08 22:00 21.54375 39.07486 3311 ft 257 kts 156°
2026-05-08 22:01 21.52698 39.08167 3098 ft 253 kts 156°
2026-05-08 22:01 21.51046 39.08822 3075 ft 256 kts 157°
2026-05-08 22:01 21.49353 39.09495 3068 ft 256 kts 157°
2026-05-08 22:01 21.47683 39.10159 3063 ft 256 kts 157°
2026-05-08 22:02 21.45992 39.10828 3063 ft 256 kts 157°
2026-05-08 22:02 21.44316 39.11491 3058 ft 256 kts 157°
2026-05-08 22:02 21.42630 39.12152 3052 ft 255 kts 153°
2026-05-08 22:02 21.41231 39.13275 3054 ft 248 kts 122°
2026-05-08 22:03 21.40561 39.14962 2977 ft 246 kts 92°
2026-05-08 22:03 21.40776 39.16710 2850 ft 234 kts 61°
2026-05-08 22:03 21.41802 39.18027 2718 ft 228 kts 32°
2026-05-08 22:03 21.43177 39.18872 2671 ft 225 kts 27°
2026-05-08 22:04 21.44560 39.19652 2664 ft 225 kts 26°
2026-05-08 22:04 21.45968 39.20442 2666 ft 226 kts 26°
2026-05-08 22:04 21.47385 39.21159 2662 ft 226 kts 14°
2026-05-08 22:04 21.48915 39.21139 2658 ft 215 kts 343°
2026-05-08 22:05 21.50263 39.20569 2661 ft 203 kts 340°
2026-05-08 22:05 21.51572 39.20000 2678 ft 198 kts 341°
2026-05-08 22:05 21.52827 39.19501 2663 ft 186 kts 343°
2026-05-08 22:05 21.54027 39.19041 2644 ft 182 kts 343°
2026-05-08 22:06 21.55240 39.18574 2411 ft 183 kts 343°
2026-05-08 22:06 21.56424 39.18111 2189 ft 176 kts 343°
2026-05-08 22:06 21.57522 39.17683 1976 ft 160 kts 343°
2026-05-08 22:06 21.58520 39.17294 1780 ft 145 kts 343°
2026-05-08 22:07 21.59424 39.16941 1610 ft 134 kts 343°
2026-05-08 22:07 21.60301 39.16598 1440 ft 131 kts 343°
2026-05-08 22:07 21.61156 39.16262 1269 ft 130 kts 343°
2026-05-08 22:07 21.62007 39.15942 1085 ft 134 kts 343°
2026-05-08 22:08 21.62881 39.15595 851 ft 130 kts 341°
2026-05-08 22:08 21.63739 39.15251 708 ft 132 kts 341°
2026-05-08 22:08 21.64619 39.14905 598 ft 137 kts 342°
2026-05-08 22:08 21.65518 39.14564 392 ft 134 kts 341°
2026-05-08 22:09 21.66388 39.14220 217 ft 136 kts 341°
2026-05-08 22:09 21.67293 39.13863 68 ft 136 kts 341°
2026-05-08 22:09 21.68085 39.13553 61 ft 99 kts 340°
2026-05-08 22:09 21.68592 39.13350 61 ft 55 kts 340°
2026-05-08 22:10 21.68854 39.13249 61 ft 34 kts 341°
2026-05-08 22:10 21.69074 39.13191 61 ft 30 kts 353°
2026-05-08 22:10 21.69226 39.13204 61 ft 16 kts
2026-05-08 22:10 21.69284 39.13217 61 ft 8 kts 17°
2026-05-08 22:11 21.69347 39.13272 61 ft 12 kts 59°
2026-05-08 22:11 21.69385 39.13355 61 ft 12 kts 66°
2026-05-08 22:11 21.69393 39.13375 61 ft 0 kts 70°
2026-05-08 22:11 21.69419 39.13436 61 ft 13 kts 52°
2026-05-08 22:12 21.69481 39.13455 61 ft 7 kts 351°
2026-05-08 22:12 21.69508 39.13426 61 ft 5 kts 285°
2026-05-08 22:12 21.69505 39.13398 61 ft 6 kts 250°